Time,TemperatureF,DewpointF,PressureIn,WindDirection,WindDirectionDegrees,WindSpeedMPH,WindSpeedGustMPH,Humidity,HourlyPrecipIn,Conditions,Clouds,dailyrainin,SoftwareType,DateUTC
2013-08-26 00:01:00,75.3,71.5,30.14,SSE,164,0.0,0.0,88,0.00,CLR,,0.00,WeatherDisplay:10.37,2013-08-26 05:01:00,
2013-08-26 00:06:00,75.2,71.4,30.14,SSW,194,0.1,1.1,88,0.00,CLR,,0.00,WeatherDisplay:10.37,2013-08-26 05:06:00,
2013-08-26 00:11:00,75.0,71.5,30.14,SSW,195,0.0,0.0,89,0.00,,,0.00,WeatherDisplay:10.37,2013-08-26 05:11:00,
2013-08-26 00:16:00,74.7,71.2,30.13,SSW,195,0.0,0.0,89,0.00,,,0.00,WeatherDisplay:10.37,2013-08-26 05:16:00,
2013-08-26 00:21:00,74.5,71.4,30.13,SSW,194,0.0,0.0,90,0.00,,,0.00,WeatherDisplay:10.37,2013-08-26 05:21:00,
2013-08-26 00:26:00,74.3,71.2,30.13,SSW,196,0.0,0.0,90,0.00,,,0.00,WeatherDisplay:10.37,2013-08-26 05:26:00,
2013-08-26 00:31:00,74.1,71.0,30.13,SSW,195,0.0,0.0,90,0.00,,,0.00,WeatherDisplay:10.37,2013-08-26 05:31:00,
2013-08-26 00:36:00,73.9,71.1,30.13,SSW,205,0.0,0.0,91,0.00,,,0.00,WeatherDisplay:10.37,2013-08-26 05:36:00,
2013-08-26 00:41:00,73.7,70.9,30.13,SSW,205,0.0,0.0,91,0.00,,,0.00,WeatherDisplay:10.37,2013-08-26 05:41:00,
2013-08-26 00:46:00,73.6,70.8,30.14,SSW,205,0.0,0.0,91,0.00,,,0.00,WeatherDisplay:10.37,2013-08-26 05:46:00,
2013-08-26 00:52:00,73.6,71.1,30.14,SSW,205,0.0,0.0,92,0.00,,,0.00,WeatherDisplay:10.37,2013-08-26 05:52:00,
2013-08-26 00:57:00,73.5,71.0,30.13,SSW,205,0.0,0.0,92,0.00,,,0.00,WeatherDisplay:10.37,2013-08-26 05:57:00,
2013-08-26 01:02:00,73.4,70.9,30.13,SSW,205,0.0,0.0,92,0.00,,,0.00,WeatherDisplay:10.37,2013-08-26 06:02:00,
2013-08-26 01:07:00,73.5,71.4,30.13,SSW,203,0.0,0.0,93,0.00,,,0.00,WeatherDisplay:10.37,2013-08-26 06:07:00,
2013-08-26 01:12:00,73.6,71.4,30.13,SSE,150,0.0,0.0,93,0.00,,,0.00,WeatherDisplay:10.37,2013-08-26 06:12:00,
2013-08-26 01:17:00,73.6,71.4,30.13,SSE,150,0.0,0.0,93,0.00,,,0.00,WeatherDisplay:10.37,2013-08-26 06:17:00,
2013-08-26 01:22:00,73.6,71.4,30.13,SSE,150,0.0,0.0,93,0.00,,,0.00,WeatherDisplay:10.37,2013-08-26 06:22:00,
2013-08-26 01:27:00,73.6,71.4,30.13,SSE,151,0.0,0.0,93,0.00,,,0.00,WeatherDisplay:10.37,2013-08-26 06:27:00,
2013-08-26 01:32:00,73.5,71.4,30.13,SSE,150,0.0,0.0,93,0.00,,,0.00,WeatherDisplay:10.37,2013-08-26 06:32:00,
2013-08-26 01:37:00,73.4,71.3,30.13,SE,141,0.0,0.0,93,0.00,,,0.00,WeatherDisplay:10.37,2013-08-26 06:37:00,
2013-08-26 01:42:00,73.3,71.2,30.13,SE,141,0.0,0.0,93,0.00,,,0.00,WeatherDisplay:10.37,2013-08-26 06:42:00,
2013-08-26 01:47:00,73.2,71.1,30.13,SE,141,0.0,0.0,93,0.00,,,0.00,WeatherDisplay:10.37,2013-08-26 06:47:00,
2013-08-26 01:52:00,73.2,71.4,30.13,SE,141,0.0,0.0,94,0.00,,,0.00,WeatherDisplay:10.37,2013-08-26 06:52:00,
2013-08-26 01:57:00,73.2,71.1,30.13,SE,141,0.0,0.0,93,0.00,,,0.00,WeatherDisplay:10.37,2013-08-26 06:57:00,
2013-08-26 02:02:00,73.2,71.1,30.13,ESE,102,0.0,0.0,93,0.00,,,0.00,WeatherDisplay:10.37,2013-08-26 07:02:00,
2013-08-26 02:07:00,73.1,71.0,30.13,ESE,102,0.0,0.0,93,0.00,,,0.00,WeatherDisplay:10.37,2013-08-26 07:07:00,
2013-08-26 02:12:00,73.0,71.2,30.13,ESE,102,0.0,0.0,94,0.00,,,0.00,WeatherDisplay:10.37,2013-08-26 07:12:00,
2013-08-26 02:17:00,73.0,71.2,30.13,ESE,102,0.0,0.0,94,0.00,,,0.00,WeatherDisplay:10.37,2013-08-26 07:17:00,
2013-08-26 02:22:00,72.9,71.1,30.13,ESE,102,0.0,0.0,94,0.00,,,0.00,WeatherDisplay:10.37,2013-08-26 07:22:00,
2013-08-26 02:27:00,72.6,70.8,30.13,ESE,102,0.0,0.0,94,0.00,,,0.00,WeatherDisplay:10.37,2013-08-26 07:27:00,
2013-08-26 02:32:00,72.5,70.7,30.13,ESE,102,0.0,0.0,94,0.00,,,0.00,WeatherDisplay:10.37,2013-08-26 07:32:00,
2013-08-26 02:37:00,72.4,70.6,30.13,ESE,102,0.0,0.0,94,0.00,,,0.00,WeatherDisplay:10.37,2013-08-26 07:37:00,
2013-08-26 02:42:00,72.4,70.9,30.13,ESE,102,0.0,0.0,95,0.00,,,0.00,WeatherDisplay:10.37,2013-08-26 07:42:00,
2013-08-26 02:47:00,72.3,70.5,30.13,ESE,102,0.0,0.0,94,0.00,,,0.00,WeatherDisplay:10.37,2013-08-26 07:47:00,
2013-08-26 02:52:00,72.2,70.7,30.13,ESE,102,0.0,0.0,95,0.00,,,0.00,WeatherDisplay:10.37,2013-08-26 07:52:00,
2013-08-26 02:57:00,72.2,70.7,30.13,ESE,102,0.0,0.0,95,0.00,,,0.00,WeatherDisplay:10.37,2013-08-26 07:57:00,
2013-08-26 03:02:00,72.1,70.6,30.13,ESE,102,0.0,0.0,95,0.00,,,0.00,WeatherDisplay:10.37,2013-08-26 08:02:00,
2013-08-26 03:07:00,72.1,70.6,30.13,ESE,102,0.0,0.0,95,0.00,,,0.00,WeatherDisplay:10.37,2013-08-26 08:07:00,
2013-08-26 03:12:00,72.0,70.5,30.13,ESE,102,0.0,0.0,95,0.00,,,0.00,WeatherDisplay:10.37,2013-08-26 08:12:00,
2013-08-26 03:17:00,72.0,70.5,30.13,ESE,102,0.0,0.0,95,0.00,,,0.00,WeatherDisplay:10.37,2013-08-26 08:17:00,
2013-08-26 03:22:00,71.9,70.4,30.13,ESE,102,0.0,0.0,95,0.00,,,0.00,WeatherDisplay:10.37,2013-08-26 08:22:00,
2013-08-26 03:27:00,71.8,70.3,30.13,East,101,0.0,0.0,95,0.00,,,0.00,WeatherDisplay:10.37,2013-08-26 08:27:00,
2013-08-26 03:32:00,71.6,70.1,30.13,East,101,0.0,0.0,95,0.00,,,0.00,WeatherDisplay:10.37,2013-08-26 08:32:00,
2013-08-26 03:37:00,71.6,71.6,30.13,ESE,102,0.0,0.0,100,0.00,,,0.00,WeatherDisplay:10.37,2013-08-26 08:37:00,
2013-08-26 03:42:00,71.6,71.6,30.13,ESE,102,0.0,0.0,100,0.00,,,0.00,WeatherDisplay:10.37,2013-08-26 08:42:00,
2013-08-26 03:47:00,71.5,71.5,30.13,ESE,102,0.0,0.0,100,0.00,,,0.00,WeatherDisplay:10.37,2013-08-26 08:47:00,
2013-08-26 03:52:00,71.5,71.5,30.13,ESE,102,0.0,0.0,100,0.00,,,0.00,WeatherDisplay:10.37,2013-08-26 08:52:00,
2013-08-26 03:57:00,71.4,71.4,30.13,SSE,149,0.0,0.0,100,0.00,,,0.00,WeatherDisplay:10.37,2013-08-26 08:57:00,
2013-08-26 04:02:00,71.4,71.4,30.13,ESE,102,0.0,0.0,100,0.00,,,0.00,WeatherDisplay:10.37,2013-08-26 09:02:00,
2013-08-26 04:07:00,71.4,71.4,30.13,East,100,0.0,0.0,100,0.00,,,0.00,WeatherDisplay:10.37,2013-08-26 09:07:00,
2013-08-26 04:12:00,71.3,71.3,30.13,SSW,208,0.0,0.0,100,0.00,,,0.00,WeatherDisplay:10.37,2013-08-26 09:12:00,
2013-08-26 04:17:00,71.4,71.4,30.13,SSW,207,0.2,1.0,100,0.00,,,0.00,WeatherDisplay:10.37,2013-08-26 09:17:00,
2013-08-26 04:22:00,71.4,71.4,30.13,SSE,162,0.1,1.1,100,0.00,,,0.00,WeatherDisplay:10.37,2013-08-26 09:22:00,
2013-08-26 04:27:00,71.4,71.4,30.13,SSE,162,0.0,0.0,100,0.00,,,0.00,WeatherDisplay:10.37,2013-08-26 09:27:00,
2013-08-26 04:32:00,71.1,71.1,30.13,SSE,162,0.0,0.0,100,0.00,,,0.00,WeatherDisplay:10.37,2013-08-26 09:32:00,
2013-08-26 04:37:00,70.8,70.8,30.13,SSE,162,0.0,0.0,100,0.00,,,0.00,WeatherDisplay:10.37,2013-08-26 09:37:00,
2013-08-26 04:42:00,70.8,70.8,30.13,SSE,162,0.0,0.0,100,0.00,,,0.00,WeatherDisplay:10.37,2013-08-26 09:42:00,
2013-08-26 04:47:00,70.9,70.9,30.13,SSE,155,0.0,0.0,100,0.00,,,0.00,WeatherDisplay:10.37,2013-08-26 09:47:00,
2013-08-26 04:52:00,70.7,70.7,30.13,SSE,155,0.0,0.0,100,0.00,,,0.00,WeatherDisplay:10.37,2013-08-26 09:52:00,
2013-08-26 04:57:00,70.8,70.8,30.13,SSE,155,0.0,0.0,100,0.00,,,0.00,WeatherDisplay:10.37,2013-08-26 09:57:00,
2013-08-26 05:02:00,70.7,70.7,30.13,SSE,155,0.0,0.0,100,0.00,,,0.00,WeatherDisplay:10.37,2013-08-26 10:02:00,
2013-08-26 05:07:00,70.6,70.6,30.13,SSE,158,0.0,0.0,100,0.00,,,0.00,WeatherDisplay:10.37,2013-08-26 10:07:00,
2013-08-26 05:12:00,70.5,70.5,30.13,SSE,158,0.0,0.0,100,0.00,,,0.00,WeatherDisplay:10.37,2013-08-26 10:12:00,
2013-08-26 05:17:00,70.5,70.5,30.13,SSE,162,0.0,0.0,100,0.00,,,0.00,WeatherDisplay:10.37,2013-08-26 10:17:00,
2013-08-26 05:22:00,70.6,70.6,30.13,SSE,148,0.0,1.1,100,0.00,,,0.00,WeatherDisplay:10.37,2013-08-26 10:22:00,
2013-08-26 05:27:00,70.6,70.6,30.13,SSE,158,0.0,0.0,100,0.00,,,0.00,WeatherDisplay:10.37,2013-08-26 10:27:00,
2013-08-26 05:32:00,70.5,70.5,30.13,SSE,158,0.0,0.0,100,0.00,,,0.00,WeatherDisplay:10.37,2013-08-26 10:32:00,
2013-08-26 05:37:00,70.4,70.4,30.13,SSE,158,0.0,0.0,100,0.00,,,0.00,WeatherDisplay:10.37,2013-08-26 10:37:00,
2013-08-26 05:42:00,70.5,70.5,30.13,SSE,149,0.0,0.0,100,0.00,,,0.00,WeatherDisplay:10.37,2013-08-26 10:42:00,
2013-08-26 05:47:00,70.6,70.6,30.13,SE,145,0.0,0.0,100,0.00,,,0.00,WeatherDisplay:10.37,2013-08-26 10:47:00,
2013-08-26 05:52:00,70.6,70.6,30.13,SE,144,0.9,1.1,100,0.00,,,0.00,WeatherDisplay:10.37,2013-08-26 10:52:00,
2013-08-26 05:57:00,70.6,70.6,30.13,SSE,160,0.0,0.0,100,0.00,,,0.00,WeatherDisplay:10.37,2013-08-26 10:57:00,
2013-08-26 06:02:00,70.6,70.6,30.13,SSE,159,0.0,0.0,100,0.00,,,0.00,WeatherDisplay:10.37,2013-08-26 11:02:00,
2013-08-26 06:07:00,70.5,70.5,30.13,SSE,159,0.0,0.0,100,0.00,,,0.00,WeatherDisplay:10.37,2013-08-26 11:07:00,
2013-08-26 06:12:00,70.5,70.5,30.13,South,172,0.0,0.0,100,0.00,CLR,,0.00,WeatherDisplay:10.37,2013-08-26 11:12:00,
2013-08-26 06:17:00,70.4,70.4,30.13,SSE,152,0.0,0.0,100,0.00,CLR,,0.00,WeatherDisplay:10.37,2013-08-26 11:17:00,
2013-08-26 06:23:00,70.4,70.4,30.13,SSE,152,0.0,0.0,100,0.00,CLR,,0.00,WeatherDisplay:10.37,2013-08-26 11:23:00,
2013-08-26 06:28:00,70.4,70.4,30.13,SSE,156,0.1,0.0,100,0.00,CLR,,0.00,WeatherDisplay:10.37,2013-08-26 11:28:00,
2013-08-26 06:33:00,70.5,70.5,30.13,SSE,153,0.9,2.0,100,0.00,CLR,,0.00,WeatherDisplay:10.37,2013-08-26 11:33:00,
2013-08-26 06:38:00,70.6,70.6,30.13,SSE,162,0.7,2.3,100,0.00,CLR,,0.00,WeatherDisplay:10.37,2013-08-26 11:38:00,
2013-08-26 06:43:00,70.7,70.7,30.13,SSE,158,0.0,0.0,100,0.00,CLR,,0.00,WeatherDisplay:10.37,2013-08-26 11:43:00,
2013-08-26 06:48:00,70.7,70.7,30.14,South,191,0.0,0.0,100,0.00,CLR,,0.00,WeatherDisplay:10.37,2013-08-26 11:48:00,
2013-08-26 06:53:00,70.8,70.8,30.14,SSE,158,0.2,1.1,100,0.00,CLR,,0.00,WeatherDisplay:10.37,2013-08-26 11:53:00,
2013-08-26 06:58:00,70.9,70.9,30.14,SSW,193,0.2,1.1,100,0.00,CLR,,0.00,WeatherDisplay:10.37,2013-08-26 11:58:00,
2013-08-26 07:03:00,70.9,70.9,30.14,SSE,158,0.0,0.0,100,0.00,CLR,,0.00,WeatherDisplay:10.37,2013-08-26 12:03:00,
2013-08-26 07:08:00,70.9,70.9,30.14,SSW,203,0.4,1.1,100,0.00,CLR,,0.00,WeatherDisplay:10.37,2013-08-26 12:08:00,
2013-08-26 07:13:00,71.0,71.0,30.14,SE,132,1.2,2.3,100,0.00,CLR,,0.00,WeatherDisplay:10.37,2013-08-26 12:13:00,
2013-08-26 07:18:00,71.1,71.1,30.14,SSE,148,1.0,2.3,100,0.00,CLR,,0.00,WeatherDisplay:10.37,2013-08-26 12:18:00,
2013-08-26 07:23:00,71.2,71.2,30.14,ESE,120,0.7,2.3,100,0.00,CLR,,0.00,WeatherDisplay:10.37,2013-08-26 12:23:00,
2013-08-26 07:28:00,71.2,71.2,30.14,ESE,110,0.6,2.3,100,0.00,CLR,,0.00,WeatherDisplay:10.37,2013-08-26 12:28:00,
2013-08-26 07:33:00,71.3,71.3,30.14,SE,143,0.0,1.1,100,0.00,CLR,,0.00,WeatherDisplay:10.37,2013-08-26 12:33:00,
2013-08-26 07:38:00,71.4,71.4,30.14,SSW,203,0.0,1.1,100,0.00,CLR,,0.00,WeatherDisplay:10.37,2013-08-26 12:38:00,
2013-08-26 07:43:00,71.5,71.5,30.15,SE,144,0.1,1.1,100,0.00,CLR,,0.00,WeatherDisplay:10.37,2013-08-26 12:43:00,
2013-08-26 07:48:00,71.5,71.5,30.15,South,179,0.0,0.0,100,0.00,CLR,,0.00,WeatherDisplay:10.37,2013-08-26 12:48:00,
2013-08-26 07:53:00,71.7,71.7,30.15,SE,127,0.4,2.3,100,0.00,CLR,,0.00,WeatherDisplay:10.37,2013-08-26 12:53:00,
2013-08-26 07:58:00,71.8,71.8,30.14,South,174,0.2,2.0,100,0.00,CLR,,0.00,WeatherDisplay:10.37,2013-08-26 12:58:00,
2013-08-26 08:03:00,72.0,72.0,30.14,SE,143,0.0,0.0,100,0.00,CLR,,0.00,WeatherDisplay:10.37,2013-08-26 13:03:00,
2013-08-26 08:08:00,72.4,72.4,30.15,SE,129,0.0,0.0,100,0.00,CLR,,0.00,WeatherDisplay:10.37,2013-08-26 13:08:00,
2013-08-26 08:13:00,72.8,72.8,30.15,SE,124,0.0,0.0,100,0.00,CLR,,0.00,WeatherDisplay:10.37,2013-08-26 13:13:00,
2013-08-26 08:18:00,73.4,73.4,30.14,South,189,0.4,1.1,100,0.00,CLR,,0.00,WeatherDisplay:10.37,2013-08-26 13:18:00,
2013-08-26 08:23:00,73.9,73.9,30.14,East,95,0.5,2.3,100,0.00,CLR,,0.00,WeatherDisplay:10.37,2013-08-26 13:23:00,
2013-08-26 08:28:00,74.1,74.1,30.15,SE,124,0.0,0.0,100,0.00,CLR,,0.00,WeatherDisplay:10.37,2013-08-26 13:28:00,
2013-08-26 08:33:00,74.9,74.9,30.15,SSE,153,0.0,0.0,100,0.00,CLR,,0.00,WeatherDisplay:10.37,2013-08-26 13:33:00,
2013-08-26 08:38:00,75.9,75.9,30.15,SSE,148,0.0,0.0,100,0.00,CLR,,0.00,WeatherDisplay:10.37,2013-08-26 13:38:00,
2013-08-26 08:43:00,76.6,74.4,30.15,East,96,0.1,1.1,93,0.00,CLR,,0.00,WeatherDisplay:10.37,2013-08-26 13:43:00,
2013-08-26 08:48:00,77.2,74.0,30.15,ESE,104,0.1,1.1,90,0.00,CLR,,0.00,WeatherDisplay:10.37,2013-08-26 13:48:00,
2013-08-26 08:53:00,77.3,73.5,30.15,SE,137,0.2,1.1,88,0.00,CLR,,0.00,WeatherDisplay:10.37,2013-08-26 13:53:00,
2013-08-26 08:58:00,77.7,73.5,30.15,SE,127,0.0,1.1,87,0.00,CLR,,0.00,WeatherDisplay:10.37,2013-08-26 13:58:00,
2013-08-26 09:03:00,78.1,73.6,30.15,East,96,0.4,1.1,86,0.00,CLR,,0.00,WeatherDisplay:10.37,2013-08-26 14:03:00,
2013-08-26 09:08:00,77.9,73.4,30.15,SW,225,0.1,1.1,86,0.00,CLR,,0.00,WeatherDisplay:10.37,2013-08-26 14:08:00,
2013-08-26 09:13:00,77.3,72.4,30.15,SW,229,2.7,4.6,85,0.00,CLR,,0.00,WeatherDisplay:10.37,2013-08-26 14:13:00,
2013-08-26 09:18:00,77.5,73.0,30.15,WSW,244,0.6,2.3,86,0.00,CLR,,0.00,WeatherDisplay:10.37,2013-08-26 14:18:00,
2013-08-26 09:23:00,77.5,73.0,30.15,SE,143,1.4,3.5,86,0.00,CLR,,0.00,WeatherDisplay:10.37,2013-08-26 14:23:00,
2013-08-26 09:28:00,77.7,73.2,30.15,SSW,194,0.2,2.3,86,0.00,CLR,,0.00,WeatherDisplay:10.37,2013-08-26 14:28:00,
2013-08-26 09:33:00,78.1,73.6,30.15,SW,215,0.0,1.1,86,0.00,CLR,,0.00,WeatherDisplay:10.37,2013-08-26 14:33:00,
2013-08-26 09:38:00,78.4,73.5,30.15,West,271,1.6,3.5,85,0.00,CLR,,0.00,WeatherDisplay:10.37,2013-08-26 14:38:00,
2013-08-26 09:43:00,78.9,73.7,30.15,SW,225,1.9,5.0,84,0.00,CLR,,0.00,WeatherDisplay:10.37,2013-08-26 14:43:00,
2013-08-26 09:48:00,78.9,73.3,30.15,SW,221,2.0,4.6,83,0.00,CLR,,0.00,WeatherDisplay:10.37,2013-08-26 14:48:00,
2013-08-26 09:53:00,79.2,73.9,30.15,East,98,0.5,1.1,84,0.00,CLR,,0.00,WeatherDisplay:10.37,2013-08-26 14:53:00,
2013-08-26 09:58:00,79.9,73.2,30.16,WSW,252,3.1,3.5,80,0.00,CLR,,0.00,WeatherDisplay:10.37,2013-08-26 14:58:00,
2013-08-26 10:03:00,79.8,73.4,30.15,SW,228,3.5,4.0,81,0.00,CLR,,0.00,WeatherDisplay:10.37,2013-08-26 15:03:00,
2013-08-26 10:08:00,79.8,73.8,30.15,WSW,257,1.6,3.5,82,0.00,CLR,,0.00,WeatherDisplay:10.37,2013-08-26 15:08:00,
2013-08-26 10:13:00,80.2,73.5,30.16,West,269,2.9,5.8,80,0.00,CLR,,0.00,WeatherDisplay:10.37,2013-08-26 15:13:00,
2013-08-26 10:18:00,80.6,74.6,30.16,WNW,283,0.3,2.3,82,0.00,CLR,,0.00,WeatherDisplay:10.37,2013-08-26 15:18:00,
2013-08-26 10:23:00,81.7,74.9,30.16,SSE,165,0.3,1.0,80,0.00,CLR,,0.00,WeatherDisplay:10.37,2013-08-26 15:23:00,
2013-08-26 10:28:00,82.2,73.9,30.16,SW,234,0.9,3.5,76,0.00,CLR,,0.00,WeatherDisplay:10.37,2013-08-26 15:28:00,
2013-08-26 10:33:00,82.6,74.7,30.16,West,278,0.6,2.3,77,0.00,CLR,,0.00,WeatherDisplay:10.37,2013-08-26 15:33:00,
2013-08-26 10:38:00,82.7,74.0,30.16,WSW,239,1.8,3.5,75,0.00,CLR,,0.00,WeatherDisplay:10.37,2013-08-26 15:38:00,
2013-08-26 10:43:00,83.0,73.9,30.15,SE,136,0.0,1.1,74,0.00,CLR,,0.00,WeatherDisplay:10.37,2013-08-26 15:43:00,
2013-08-26 10:48:00,83.8,74.2,30.15,West,262,1.1,2.3,73,0.00,CLR,,0.00,WeatherDisplay:10.37,2013-08-26 15:48:00,
2013-08-26 10:53:00,84.1,74.5,30.15,SW,222,0.5,1.1,73,0.00,CLR,,0.00,WeatherDisplay:10.37,2013-08-26 15:53:00,
2013-08-26 10:58:00,84.5,74.5,30.15,SSW,193,2.2,6.0,72,0.00,CLR,,0.00,WeatherDisplay:10.37,2013-08-26 15:58:00,
2013-08-26 11:03:00,84.1,74.1,30.15,SW,222,3.4,4.0,72,0.00,CLR,,0.00,WeatherDisplay:10.37,2013-08-26 16:03:00,
2013-08-26 11:08:00,84.4,74.4,30.15,West,276,0.6,2.0,72,0.00,CLR,,0.00,WeatherDisplay:10.37,2013-08-26 16:08:00,
2013-08-26 11:13:00,84.4,74.0,30.15,SSE,149,2.1,3.5,71,0.00,CLR,,0.00,WeatherDisplay:10.37,2013-08-26 16:13:00,
2013-08-26 11:18:00,84.7,73.4,30.15,South,186,4.2,4.2,69,0.00,CLR,,0.00,WeatherDisplay:10.37,2013-08-26 16:18:00,
2013-08-26 11:23:00,84.8,73.1,30.15,SSW,208,1.5,2.3,68,0.00,CLR,,0.00,WeatherDisplay:10.37,2013-08-26 16:23:00,
2013-08-26 11:28:00,84.7,73.4,30.15,SW,233,2.9,4.0,69,0.00,CLR,,0.00,WeatherDisplay:10.37,2013-08-26 16:28:00,
2013-08-26 11:33:00,85.2,74.7,30.15,WSW,240,0.4,1.0,71,0.00,CLR,,0.00,WeatherDisplay:10.37,2013-08-26 16:33:00,
2013-08-26 11:38:00,86.2,74.4,30.15,WNW,289,1.9,1.9,68,0.00,CLR,,0.00,WeatherDisplay:10.37,2013-08-26 16:38:00,
2013-08-26 11:44:00,85.7,73.5,30.15,WSW,240,3.5,3.5,67,0.00,CLR,,0.00,WeatherDisplay:10.37,2013-08-26 16:44:00,
2013-08-26 11:49:00,86.1,75.2,30.15,SW,219,1.9,5.0,70,0.00,CLR,,0.00,WeatherDisplay:10.37,2013-08-26 16:49:00,
2013-08-26 11:54:00,85.9,74.1,30.15,WNW,299,1.5,3.5,68,0.00,CLR,,0.00,WeatherDisplay:10.37,2013-08-26 16:54:00,
2013-08-26 11:59:00,85.9,72.3,30.15,WSW,250,5.3,6.9,64,0.00,CLR,,0.00,WeatherDisplay:10.37,2013-08-26 16:59:00,
2013-08-26 12:04:00,86.4,74.1,30.15,West,259,0.6,1.1,67,0.00,CLR,,0.00,WeatherDisplay:10.37,2013-08-26 17:04:00,
2013-08-26 12:09:00,86.7,73.5,30.14,West,281,2.7,8.1,65,0.00,CLR,,0.00,WeatherDisplay:10.37,2013-08-26 17:09:00,
2013-08-26 12:14:00,86.8,72.7,30.14,West,266,1.9,3.5,63,0.00,CLR,,0.00,WeatherDisplay:10.37,2013-08-26 17:14:00,
2013-08-26 12:19:00,87.6,72.5,30.14,SW,224,1.4,3.5,61,0.00,CLR,,0.00,WeatherDisplay:10.37,2013-08-26 17:19:00,
2013-08-26 12:24:00,87.0,73.3,30.14,WSW,239,0.8,3.5,64,0.00,CLR,,0.00,WeatherDisplay:10.37,2013-08-26 17:24:00,
2013-08-26 12:29:00,88.3,73.6,30.14,SW,230,0.3,2.3,62,0.00,CLR,,0.00,WeatherDisplay:10.37,2013-08-26 17:29:00,
2013-08-26 12:34:00,88.8,75.0,30.13,SE,140,2.5,4.6,64,0.00,CLR,,0.00,WeatherDisplay:10.37,2013-08-26 17:34:00,
2013-08-26 12:39:00,89.5,74.3,30.13,SW,224,0.1,1.1,61,0.00,CLR,,0.00,WeatherDisplay:10.37,2013-08-26 17:39:00,
2013-08-26 12:44:00,90.0,74.2,30.13,ENE,77,0.8,2.3,60,0.00,CLR,,0.00,WeatherDisplay:10.37,2013-08-26 17:44:00,
2013-08-26 12:49:00,89.3,73.6,30.12,WSW,249,0.3,1.1,60,0.00,CLR,,0.00,WeatherDisplay:10.37,2013-08-26 17:49:00,
2013-08-26 12:54:00,88.3,72.2,30.12,SW,236,0.0,1.1,59,0.00,CLR,,0.00,WeatherDisplay:10.37,2013-08-26 17:54:00,
2013-08-26 12:59:00,88.0,72.9,30.12,SW,222,2.5,3.5,61,0.00,CLR,,0.00,WeatherDisplay:10.37,2013-08-26 17:59:00,
2013-08-26 13:04:00,88.6,72.9,30.12,ENE,68,0.0,0.0,60,0.00,CLR,,0.00,WeatherDisplay:10.37,2013-08-26 18:04:00,
2013-08-26 13:09:00,90.6,72.8,30.12,SE,143,1.2,2.3,56,0.00,CLR,,0.00,WeatherDisplay:10.37,2013-08-26 18:09:00,
2013-08-26 13:14:00,91.0,72.0,30.12,SW,232,1.5,3.5,54,0.00,CLR,,0.00,WeatherDisplay:10.37,2013-08-26 18:14:00,
2013-08-26 13:19:00,90.8,73.5,30.12,SW,219,1.5,3.5,57,0.00,CLR,,0.00,WeatherDisplay:10.37,2013-08-26 18:19:00,
2013-08-26 13:24:00,91.3,73.9,30.12,SW,225,1.1,2.3,57,0.00,CLR,,0.00,WeatherDisplay:10.37,2013-08-26 18:24:00,
2013-08-26 13:29:00,91.3,72.9,30.11,SSW,211,0.2,1.1,55,0.00,CLR,,0.00,WeatherDisplay:10.37,2013-08-26 18:29:00,
2013-08-26 13:34:00,91.9,73.4,30.11,West,279,0.4,2.3,55,0.00,CLR,,0.00,WeatherDisplay:10.37,2013-08-26 18:34:00,
2013-08-26 13:39:00,92.3,73.2,30.11,SW,218,1.1,3.5,54,0.00,CLR,,0.00,WeatherDisplay:10.37,2013-08-26 18:39:00,
2013-08-26 13:44:00,92.5,71.2,30.11,NE,56,0.1,1.1,50,0.00,CLR,,0.00,WeatherDisplay:10.37,2013-08-26 18:44:00,
2013-08-26 13:49:00,92.2,71.5,30.11,WSW,242,1.9,4.0,51,0.00,CLR,,0.00,WeatherDisplay:10.37,2013-08-26 18:49:00,
2013-08-26 13:54:00,91.9,74.5,30.11,NNW,329,0.0,0.0,57,0.00,CLR,,0.00,WeatherDisplay:10.37,2013-08-26 18:54:00,
2013-08-26 13:59:00,93.0,75.5,30.11,WNW,300,1.6,3.0,57,0.00,CLR,,0.00,WeatherDisplay:10.37,2013-08-26 18:59:00,
2013-08-26 14:04:00,91.2,73.8,30.11,West,263,0.1,1.1,57,0.00,CLR,,0.00,WeatherDisplay:10.37,2013-08-26 19:04:00,
2013-08-26 14:09:00,91.3,75.5,30.11,WNW,287,0.0,0.0,60,0.00,CLR,,0.00,WeatherDisplay:10.37,2013-08-26 19:09:00,
2013-08-26 14:14:00,91.1,75.3,30.10,WNW,294,1.5,2.3,60,0.00,CLR,,0.00,WeatherDisplay:10.37,2013-08-26 19:14:00,
2013-08-26 14:19:00,90.5,73.2,30.10,ESE,117,0.4,1.1,57,0.00,CLR,,0.00,WeatherDisplay:10.37,2013-08-26 19:19:00,
2013-08-26 14:24:00,90.9,74.1,30.10,WSW,257,0.1,1.1,58,0.00,CLR,,0.00,WeatherDisplay:10.37,2013-08-26 19:24:00,
2013-08-26 14:29:00,91.4,74.0,30.09,SSE,160,1.0,1.1,57,0.00,CLR,,0.00,WeatherDisplay:10.37,2013-08-26 19:29:00,
2013-08-26 14:34:00,91.8,72.2,30.09,WSW,248,0.0,0.0,53,0.00,CLR,,0.00,WeatherDisplay:10.37,2013-08-26 19:34:00,
2013-08-26 14:39:00,92.0,73.5,30.09,ESE,120,0.1,1.1,55,0.00,CLR,,0.00,WeatherDisplay:10.37,2013-08-26 19:39:00,
2013-08-26 14:44:00,93.0,74.4,30.09,WSW,238,0.1,1.1,55,0.00,CLR,,0.00,WeatherDisplay:10.37,2013-08-26 19:44:00,
2013-08-26 14:49:00,92.6,73.0,30.08,NW,315,0.2,1.1,53,0.00,CLR,,0.00,WeatherDisplay:10.37,2013-08-26 19:49:00,
2013-08-26 14:54:00,91.5,74.6,30.08,NW,305,0.0,1.1,58,0.00,CLR,,0.00,WeatherDisplay:10.37,2013-08-26 19:54:00,
2013-08-26 14:59:00,90.3,73.5,30.08,South,172,0.0,2.3,58,0.00,CLR,,0.00,WeatherDisplay:10.37,2013-08-26 19:59:00,
2013-08-26 15:04:00,90.2,73.4,30.08,WSW,240,1.1,3.5,58,0.00,CLR,,0.00,WeatherDisplay:10.37,2013-08-26 20:04:00,
2013-08-26 15:09:00,90.6,72.2,30.08,SW,219,2.6,4.6,55,0.00,CLR,,0.00,WeatherDisplay:10.37,2013-08-26 20:09:00,
2013-08-26 15:14:00,90.3,73.5,30.07,West,267,0.8,2.3,58,0.00,CLR,,0.00,WeatherDisplay:10.37,2013-08-26 20:14:00,
2013-08-26 15:19:00,89.9,73.7,30.07,SSW,210,1.3,3.5,59,0.00,CLR,,0.00,WeatherDisplay:10.37,2013-08-26 20:19:00,
2013-08-26 15:24:00,89.9,74.6,30.08,South,190,0.3,3.5,61,0.00,CLR,,0.00,WeatherDisplay:10.37,2013-08-26 20:24:00,
2013-08-26 15:29:00,90.4,73.1,30.07,SSW,194,0.3,1.1,57,0.00,CLR,,0.00,WeatherDisplay:10.37,2013-08-26 20:29:00,
2013-08-26 15:34:00,91.3,73.4,30.07,SSW,203,0.8,3.5,56,0.00,CLR,,0.00,WeatherDisplay:10.37,2013-08-26 20:34:00,
2013-08-26 15:39:00,91.6,72.6,30.07,WSW,253,0.6,2.3,54,0.00,CLR,,0.00,WeatherDisplay:10.37,2013-08-26 20:39:00,
2013-08-26 15:44:00,92.0,73.0,30.07,WSW,248,0.2,1.1,54,0.00,CLR,,0.00,WeatherDisplay:10.37,2013-08-26 20:44:00,
2013-08-26 15:49:00,91.9,72.3,30.06,WSW,246,0.3,1.1,53,0.00,CLR,,0.00,WeatherDisplay:10.37,2013-08-26 20:49:00,
2013-08-26 15:54:00,91.9,72.3,30.06,SSE,153,2.1,2.3,53,0.00,CLR,,0.00,WeatherDisplay:10.37,2013-08-26 20:54:00,
2013-08-26 15:59:00,91.3,72.9,30.06,ESE,118,2.2,5.8,55,0.00,CLR,,0.00,WeatherDisplay:10.37,2013-08-26 20:59:00,
2013-08-26 16:04:00,91.5,72.0,30.06,SW,222,1.9,3.5,53,0.00,CLR,,0.00,WeatherDisplay:10.37,2013-08-26 21:04:00,
2013-08-26 16:09:00,91.1,73.2,30.06,WSW,238,2.7,6.9,56,0.00,CLR,,0.00,WeatherDisplay:10.37,2013-08-26 21:09:00,
2013-08-26 16:14:00,90.6,71.7,30.06,WSW,253,2.3,3.5,54,0.00,CLR,,0.00,WeatherDisplay:10.37,2013-08-26 21:14:00,
2013-08-26 16:19:00,90.5,72.7,30.05,West,266,1.3,4.6,56,0.00,CLR,,0.00,WeatherDisplay:10.37,2013-08-26 21:19:00,
2013-08-26 16:24:00,91.7,72.7,30.05,SSE,163,1.8,3.0,54,0.00,CLR,,0.00,WeatherDisplay:10.37,2013-08-26 21:24:00,
2013-08-26 16:29:00,91.5,73.6,30.06,SE,126,1.8,3.5,56,0.00,CLR,,0.00,WeatherDisplay:10.37,2013-08-26 21:29:00,
2013-08-26 16:34:00,90.1,73.3,30.05,SSW,207,0.8,3.5,58,0.00,CLR,,0.00,WeatherDisplay:10.37,2013-08-26 21:34:00,
2013-08-26 16:39:00,89.6,74.4,30.05,SE,124,0.2,1.1,61,0.00,CLR,,0.00,WeatherDisplay:10.37,2013-08-26 21:39:00,
2013-08-26 16:44:00,89.3,73.6,30.05,South,174,0.7,3.5,60,0.00,CLR,,0.00,WeatherDisplay:10.37,2013-08-26 21:44:00,
2013-08-26 16:49:00,89.3,74.6,30.05,SW,225,0.2,1.1,62,0.00,CLR,,0.00,WeatherDisplay:10.37,2013-08-26 21:49:00,
2013-08-26 16:54:00,89.5,74.3,30.05,SE,134,0.5,3.5,61,0.00,CLR,,0.00,WeatherDisplay:10.37,2013-08-26 21:54:00,
2013-08-26 16:59:00,89.8,74.6,30.04,SSE,149,0.9,2.3,61,0.00,CLR,,0.00,WeatherDisplay:10.37,2013-08-26 21:59:00,
2013-08-26 17:04:00,89.9,72.6,30.04,SE,131,3.7,3.7,57,0.00,CLR,,0.00,WeatherDisplay:10.37,2013-08-26 22:04:00,
2013-08-26 17:09:00,89.8,73.0,30.04,SW,215,0.2,3.5,58,0.00,CLR,,0.00,WeatherDisplay:10.37,2013-08-26 22:09:00,
2013-08-26 17:14:00,90.3,74.0,30.04,SE,138,0.0,2.3,59,0.00,CLR,,0.00,WeatherDisplay:10.37,2013-08-26 22:14:00,
2013-08-26 17:19:00,91.0,72.6,30.04,SE,143,1.6,0.0,55,0.00,CLR,,0.00,WeatherDisplay:10.37,2013-08-26 22:19:00,
2013-08-26 17:24:00,91.2,72.8,30.04,SW,231,0.2,1.1,55,0.00,CLR,,0.00,WeatherDisplay:10.37,2013-08-26 22:24:00,
2013-08-26 17:30:00,90.8,71.9,30.04,SW,219,3.8,5.0,54,0.00,CLR,,0.00,WeatherDisplay:10.37,2013-08-26 22:30:00,
2013-08-26 17:35:00,90.4,74.1,30.04,SW,219,0.9,5.0,59,0.00,CLR,,0.00,WeatherDisplay:10.37,2013-08-26 22:35:00,
2013-08-26 17:40:00,89.6,71.8,30.04,South,188,2.7,4.6,56,0.00,CLR,,0.00,WeatherDisplay:10.37,2013-08-26 22:40:00,
2013-08-26 17:45:00,89.1,72.9,30.04,SSW,196,0.0,1.1,59,0.00,CLR,,0.00,WeatherDisplay:10.37,2013-08-26 22:45:00,
2013-08-26 17:50:00,88.6,72.4,30.04,SSW,199,0.0,1.1,59,0.00,CLR,,0.00,WeatherDisplay:10.37,2013-08-26 22:50:00,
2013-08-26 17:55:00,88.1,73.0,30.04,SW,225,0.0,0.0,61,0.00,CLR,,0.00,WeatherDisplay:10.37,2013-08-26 22:55:00,
2013-08-26 18:00:00,87.7,73.1,30.04,WSW,239,0.0,0.0,62,0.00,CLR,,0.00,WeatherDisplay:10.37,2013-08-26 23:00:00,
2013-08-26 18:05:00,87.3,73.2,30.04,WSW,239,0.0,0.0,63,0.00,CLR,,0.00,WeatherDisplay:10.37,2013-08-26 23:05:00,
2013-08-26 18:10:00,86.7,72.6,30.04,WSW,238,0.0,0.0,63,0.00,CLR,,0.00,WeatherDisplay:10.37,2013-08-26 23:10:00,
2013-08-26 18:15:00,86.1,72.0,30.04,SW,222,0.1,1.1,63,0.00,CLR,,0.00,WeatherDisplay:10.37,2013-08-26 23:15:00,
2013-08-26 18:20:00,85.5,73.3,30.04,SW,222,0.0,0.0,67,0.00,CLR,,0.00,WeatherDisplay:10.37,2013-08-26 23:20:00,
2013-08-26 18:25:00,85.3,72.2,30.04,SSW,204,0.0,0.0,65,0.00,CLR,,0.00,WeatherDisplay:10.37,2013-08-26 23:25:00,
2013-08-26 18:30:00,85.9,72.8,30.03,SSW,200,0.0,0.0,65,0.00,CLR,,0.00,WeatherDisplay:10.37,2013-08-26 23:30:00,
2013-08-26 18:35:00,86.7,73.1,30.03,ESE,120,0.0,0.0,64,0.00,CLR,,0.00,WeatherDisplay:10.37,2013-08-26 23:35:00,
2013-08-26 18:40:00,87.5,72.9,30.03,SSE,165,0.1,1.1,62,0.00,CLR,,0.00,WeatherDisplay:10.37,2013-08-26 23:40:00,
2013-08-26 18:45:00,87.9,73.3,30.03,SSE,157,0.0,0.0,62,0.00,CLR,,0.00,WeatherDisplay:10.37,2013-08-26 23:45:00,
2013-08-26 18:50:00,88.5,74.3,30.03,SSE,156,0.0,0.0,63,0.00,CLR,,0.00,WeatherDisplay:10.37,2013-08-26 23:50:00,
2013-08-26 18:55:00,88.6,73.9,30.03,SSE,163,0.0,0.0,62,0.00,CLR,,0.00,WeatherDisplay:10.37,2013-08-26 23:55:00,
2013-08-26 19:00:00,88.2,73.5,30.03,SSE,160,0.0,0.0,62,0.00,CLR,,0.00,WeatherDisplay:10.37,2013-08-27 00:00:00,
2013-08-26 19:05:00,87.9,74.7,30.03,SSE,160,0.0,0.0,65,0.00,CLR,,0.00,WeatherDisplay:10.37,2013-08-27 00:05:00,
2013-08-26 19:10:00,87.6,74.8,30.03,SSE,160,0.0,0.0,66,0.00,CLR,,0.00,WeatherDisplay:10.37,2013-08-27 00:10:00,
2013-08-26 19:15:00,87.2,74.9,30.03,SSE,160,0.0,0.0,67,0.00,CLR,,0.00,WeatherDisplay:10.37,2013-08-27 00:15:00,
2013-08-26 19:20:00,86.3,74.5,30.03,SSE,160,0.0,0.0,68,0.00,CLR,,0.00,WeatherDisplay:10.37,2013-08-27 00:20:00,
2013-08-26 19:25:00,85.0,73.7,30.04,SSE,160,0.0,0.0,69,0.00,CLR,,0.00,WeatherDisplay:10.37,2013-08-27 00:25:00,
2013-08-26 19:30:00,83.8,73.4,30.04,SSE,160,0.0,0.0,71,0.00,CLR,,0.00,WeatherDisplay:10.37,2013-08-27 00:30:00,
2013-08-26 19:35:00,82.8,72.8,30.04,SSE,160,0.0,0.0,72,0.00,CLR,,0.00,WeatherDisplay:10.37,2013-08-27 00:35:00,
2013-08-26 19:40:00,81.9,72.8,30.04,SSE,161,0.0,0.0,74,0.00,CLR,,0.00,WeatherDisplay:10.37,2013-08-27 00:40:00,
2013-08-26 19:45:00,81.3,72.6,30.04,SSE,160,0.0,0.0,75,0.00,CLR,,0.00,WeatherDisplay:10.37,2013-08-27 00:45:00,
2013-08-26 19:50:00,80.8,72.9,30.04,SSE,160,0.0,0.0,77,0.00,CLR,,0.00,WeatherDisplay:10.37,2013-08-27 00:50:00,
2013-08-26 19:55:00,80.3,72.4,30.04,SSE,160,0.0,0.0,77,0.00,CLR,,0.00,WeatherDisplay:10.37,2013-08-27 00:55:00,
2013-08-26 20:00:00,80.1,71.8,30.04,SSE,160,0.0,0.0,76,0.00,,,0.00,WeatherDisplay:10.37,2013-08-27 01:00:00,
2013-08-26 20:05:00,80.2,71.9,30.04,SSE,160,0.0,0.0,76,0.00,,,0.00,WeatherDisplay:10.37,2013-08-27 01:05:00,
2013-08-26 20:10:00,80.3,72.0,30.04,SSE,160,0.0,0.0,76,0.00,,,0.00,WeatherDisplay:10.37,2013-08-27 01:10:00,
2013-08-26 20:15:00,80.2,71.9,30.04,SSE,160,0.0,0.0,76,0.00,,,0.00,WeatherDisplay:10.37,2013-08-27 01:15:00,
2013-08-26 20:20:00,80.1,72.2,30.04,SSE,160,0.0,0.0,77,0.00,,,0.00,WeatherDisplay:10.37,2013-08-27 01:20:00,
2013-08-26 20:25:00,80.1,71.8,30.05,SSE,160,0.0,0.0,76,0.00,,,0.00,WeatherDisplay:10.37,2013-08-27 01:25:00,
2013-08-26 20:30:00,80.0,72.1,30.05,SSE,160,0.0,0.0,77,0.00,,,0.00,WeatherDisplay:10.37,2013-08-27 01:30:00,
2013-08-26 20:35:00,79.8,71.6,30.05,SSE,160,0.0,0.0,76,0.00,,,0.00,WeatherDisplay:10.37,2013-08-27 01:35:00,
2013-08-26 20:40:00,79.7,71.5,30.05,SSE,160,0.0,0.0,76,0.00,,,0.00,WeatherDisplay:10.37,2013-08-27 01:40:00,
2013-08-26 20:45:00,79.6,71.4,30.05,SSE,160,0.0,0.0,76,0.00,,,0.00,WeatherDisplay:10.37,2013-08-27 01:45:00,
2013-08-26 20:50:00,79.6,71.4,30.05,SSE,160,0.0,0.0,76,0.00,,,0.00,WeatherDisplay:10.37,2013-08-27 01:50:00,
2013-08-26 20:55:00,79.5,71.7,30.05,SSE,160,0.0,0.0,77,0.00,,,0.00,WeatherDisplay:10.37,2013-08-27 01:55:00,
2013-08-26 21:00:00,79.4,71.6,30.05,SSE,157,0.2,1.1,77,0.00,,,0.00,WeatherDisplay:10.37,2013-08-27 02:00:00,
2013-08-26 21:05:00,79.4,71.6,30.06,SSE,157,0.0,0.0,77,0.00,,,0.00,WeatherDisplay:10.37,2013-08-27 02:05:00,
2013-08-26 21:10:00,79.4,71.6,30.06,SSE,155,0.0,0.0,77,0.00,CLR,,0.00,WeatherDisplay:10.37,2013-08-27 02:10:00,
2013-08-26 21:15:00,79.5,71.7,30.06,SSE,152,0.0,0.0,77,0.00,CLR,,0.00,WeatherDisplay:10.37,2013-08-27 02:15:00,
2013-08-26 21:20:00,79.5,71.7,30.06,SSE,152,0.0,0.0,77,0.00,CLR,,0.00,WeatherDisplay:10.37,2013-08-27 02:20:00,
2013-08-26 21:25:00,79.5,71.7,30.06,SSE,152,0.0,0.0,77,0.00,CLR,,0.00,WeatherDisplay:10.37,2013-08-27 02:25:00,
2013-08-26 21:30:00,79.4,71.6,30.06,SSE,158,0.3,1.1,77,0.00,CLR,,0.00,WeatherDisplay:10.37,2013-08-27 02:30:00,
2013-08-26 21:35:00,79.5,71.7,30.05,SSE,155,1.0,2.3,77,0.00,CLR,,0.00,WeatherDisplay:10.37,2013-08-27 02:35:00,
2013-08-26 21:40:00,79.6,71.8,30.05,SSE,154,1.1,1.1,77,0.00,CLR,,0.00,WeatherDisplay:10.37,2013-08-27 02:40:00,
2013-08-26 21:45:00,79.7,71.8,30.05,SSE,155,0.4,1.1,77,0.00,CLR,,0.00,WeatherDisplay:10.37,2013-08-27 02:45:00,
2013-08-26 21:50:00,79.7,71.8,30.05,SSE,162,1.2,2.3,77,0.00,CLR,,0.00,WeatherDisplay:10.37,2013-08-27 02:50:00,
2013-08-26 21:55:00,79.6,71.8,30.05,SSE,166,0.7,1.1,77,0.00,CLR,,0.00,WeatherDisplay:10.37,2013-08-27 02:55:00,
2013-08-26 22:00:00,79.4,71.9,30.05,SSE,153,0.0,0.0,78,0.00,CLR,,0.00,WeatherDisplay:10.37,2013-08-27 03:00:00,
2013-08-26 22:05:00,79.0,71.9,30.05,SSE,148,0.0,1.1,79,0.00,CLR,,0.00,WeatherDisplay:10.37,2013-08-27 03:05:00,
2013-08-26 22:11:00,78.7,71.6,30.05,SSE,150,0.0,0.0,79,0.00,CLR,,0.00,WeatherDisplay:10.37,2013-08-27 03:11:00,
2013-08-26 22:16:00,78.4,71.7,30.05,SSE,160,0.6,1.1,80,0.00,CLR,,0.00,WeatherDisplay:10.37,2013-08-27 03:16:00,
2013-08-26 22:21:00,78.2,71.9,30.05,SSE,158,0.0,0.0,81,0.00,CLR,,0.00,WeatherDisplay:10.37,2013-08-27 03:21:00,
2013-08-26 22:26:00,77.9,71.6,30.05,SSE,165,0.1,1.0,81,0.00,CLR,,0.00,WeatherDisplay:10.37,2013-08-27 03:26:00,
2013-08-26 22:31:00,77.6,71.3,30.05,SSE,153,0.0,0.0,81,0.00,CLR,,0.00,WeatherDisplay:10.37,2013-08-27 03:31:00,
2013-08-26 22:36:00,77.3,71.4,30.05,SSE,154,0.0,0.0,82,0.00,CLR,,0.00,WeatherDisplay:10.37,2013-08-27 03:36:00,
2013-08-26 22:41:00,76.9,71.3,30.05,SSE,153,0.0,0.0,83,0.00,CLR,,0.00,WeatherDisplay:10.37,2013-08-27 03:41:00,
2013-08-26 22:46:00,76.6,71.0,30.05,SSE,154,0.0,0.0,83,0.00,CLR,,0.00,WeatherDisplay:10.37,2013-08-27 03:46:00,
2013-08-26 22:51:00,76.1,70.9,30.05,SSE,154,0.0,0.0,84,0.00,CLR,,0.00,WeatherDisplay:10.37,2013-08-27 03:51:00,
2013-08-26 22:56:00,75.8,71.0,30.05,SSE,154,0.0,0.0,85,0.00,CLR,,0.00,WeatherDisplay:10.37,2013-08-27 03:56:00,
2013-08-26 23:01:00,75.5,70.7,30.05,SSE,153,0.0,0.0,85,0.00,CLR,,0.00,WeatherDisplay:10.37,2013-08-27 04:01:00,
2013-08-26 23:06:00,75.3,70.5,30.05,SSE,153,0.0,0.0,85,0.00,CLR,,0.00,WeatherDisplay:10.37,2013-08-27 04:06:00,
2013-08-26 23:11:00,75.2,70.7,30.05,SSE,153,0.0,0.0,86,0.00,,,0.00,WeatherDisplay:10.37,2013-08-27 04:11:00,
2013-08-26 23:16:00,75.1,70.6,30.05,South,169,0.0,0.0,86,0.00,,,0.00,WeatherDisplay:10.37,2013-08-27 04:16:00,
2013-08-26 23:21:00,75.3,70.5,30.05,South,169,0.0,0.0,85,0.00,,,0.00,WeatherDisplay:10.37,2013-08-27 04:21:00,
2013-08-26 23:26:00,75.5,70.3,30.05,South,169,0.0,0.0,84,0.00,,,0.00,WeatherDisplay:10.37,2013-08-27 04:26:00,
2013-08-26 23:31:00,75.7,70.5,30.05,South,169,0.0,0.0,84,0.00,,,0.00,WeatherDisplay:10.37,2013-08-27 04:31:00,
2013-08-26 23:36:00,75.7,70.5,30.05,South,169,0.0,0.0,84,0.00,,,0.00,WeatherDisplay:10.37,2013-08-27 04:36:00,
2013-08-26 23:41:00,75.7,70.5,30.05,South,169,0.0,0.0,84,0.00,,,0.00,WeatherDisplay:10.37,2013-08-27 04:41:00,
2013-08-26 23:46:00,75.7,70.5,30.05,South,169,0.0,0.0,84,0.00,,,0.00,WeatherDisplay:10.37,2013-08-27 04:46:00,
2013-08-26 23:51:00,75.8,70.3,30.05,SSE,165,0.0,0.0,83,0.00,,,0.00,WeatherDisplay:10.37,2013-08-27 04:51:00,
2013-08-26 23:56:00,75.5,70.7,30.05,SSE,165,0.0,0.0,85,0.00,,,0.00,WeatherDisplay:10.37,2013-08-27 04:56:00,